Hourly Data Report for September 01, 2017

All times are specified in Local Standard Time (LST). Add 1 hour to adjust for Daylight Saving Time where and when it is observed.

ARVIAT A
NUNAVUT

61°05'38.000" N
94°04'18.000" W
10.40 m
2300427
71174
YEK

Download Data

Hourly Data (September 2017)
Hourly Data Report for September 1, 2017
Temp Definition
°C
Dew Point Temp Definition
°C
Rel Hum Definition
%
Wind Dir Definition
10's deg

Wind Spd Definition
km/h
Visibility Definition
km
Stn Press Definition
kPa
Hmdx Definition


Wind Chill Definition


Weather Definition


TIME
00:00 Legend Double Dagger 11.7 9.1 84 20 32 8.1 99.87     Haze
01:00 Legend Double Dagger 11.3 9.2 87 20 24 8.1 99.79     Fog
02:00 Legend Double Dagger 11.0 9.3 89 20 24 8.1 99.73     Fog
03:00 Legend Double Dagger 10.6 9.5 93 20 21 8.1 99.69     Fog
04:00 Legend Double Dagger 10.7 9.5 92 20 18 8.1 99.60     Fog
05:00 Legend Double Dagger 11.1 9.6 91 22 18 11.3 99.61     LegendNANA
06:00 Legend Double Dagger 11.6 10.2 91 26 13 14.5 99.52     LegendNANA
07:00 Legend Double Dagger 12.0 10.8 92 27 13 14.5 99.49     LegendNANA
08:00 Legend Double Dagger 11.6 10.5 93 21 8 12.9 99.45     LegendNANA
09:00 Legend Double Dagger 11.8 10.7 93 20 13 12.9 99.41     LegendNANA
10:00 Legend Double Dagger 12.4 11.3 93 21 9 11.3 99.40     LegendNANA
11:00 Legend Double Dagger 13.5 11.9 90 20 8 14.5 99.36     LegendNANA
12:00 Legend Double Dagger 13.6 11.8 89 17 15 16.1 99.30     LegendNANA
13:00 Legend Double Dagger 14.0 11.9 87 16 11 16.1 99.19     LegendNANA
14:00 Legend Double Dagger 15.7 12.7 82   0 8.1 99.16     Haze
15:00 Legend Double Dagger 11.5 10.3 93 16 17 14.5 99.23     Rain
16:00 Legend Double Dagger 12.1 11.6 97 22 9 9.7 99.20     Rain,Fog
17:00 Legend Double Dagger 13.0 12.5 97 28 8 4.8 99.17     Rain,Fog
18:00 Legend Double Dagger 13.3 13.0 98 35 15 6.4 99.06     Rain,Fog
19:00 Legend Double Dagger 13.9 13.8 99 32 17 4.8 99.04     Rain,Fog
20:00 Legend Double Dagger 14.4 14.3 99 34 17 4.8 98.99     Rain,Fog
21:00 Legend Double Dagger 11.1 10.8 98 5 17 2.8 99.00     Rain,Fog
22:00 Legend Double Dagger 10.4 10.3 99 2 18 4.0 99.00     Rain,Fog
23:00 Legend Double Dagger 10.5 10.4 99 36 26 4.8 98.95     Rain,Fog

Notes on Data Quality.

Legend

  • E = Estimated
  • M = Missing
  • NA = Not Available
  • ‡ = Partner data that is not subject to review by the National Climate Archives
Date modified: